Wind_Speed
13 13 13 12 12 12 11 11 10 10 9 9 9 9 9 8 8 7 7 6 6 6 6 6 6 6 7 7 7 6 6 6 6 7 7 8 8 9 9 10 9 9
13 13 13 13 12 12 12 11 11 10 10 10 10 9 9 8 8 7 7 6 5 5 5 5 5 6 6 7 7 7 7 7 7 7 8 8 9 9 10 10 10 10
13 12 12 12 12 11 11 11 11 11 11 11 10 10 9 8 8 7 6 5 5 5 5 5 6 6 6 6 7 7 7 7 8 8 8 8 9 10 10 11 11 10
12 12 11 11 11 11 11 11 11 11 11 11 10 10 10 9 8 6 5 5 5 5 5 5 6 6 6 6 6 7 7 8 8 8 8 9 9 9 10 10 9 8
11 11 11 11 11 11 11 11 11 11 11 11 11 10 9 9 8 7 6 6 6 6 6 6 6 6 6 7 7 8 8 9 9 9 10 10 10 10 9 7 7 8
12 12 12 12 12 13 12 12 12 12 12 11 11 10 9 8 8 8 8 8 8 8 7 7 7 7 8 8 9 9 10 10 10 10 10 10 9 8 6 6 8 9
14 14 13 13 13 13 13 13 12 12 12 11 10 10 9 8 8 8 9 9 9 9 8 8 9 9 9 10 11 11 11 12 12 12 11 9 8 7 7 9 10 10
16 15 15 15 14 14 14 14 14 13 12 11 10 10 10 9 9 9 10 10 10 11 10 10 10 10 11 12 12 12 13 13 13 12 11 10 9 10 11 12 12 12
17 16 16 16 15 15 15 15 15 14 14 13 12 12 12 12 11 11 11 12 12 12 12 12 12 12 12 13 14 14 13 14 14 13 11 11 12 12 12 13 14 15
19 19 18 18 17 17 17 17 16 16 15 15 15 15 15 14 14 13 14 14 14 14 14 14 13 13 13 13 14 15 14 15 15 13 13 13 12 12 14 15 16 17
22 22 21 20 20 19 19 18 18 17 17 17 18 18 18 17 16 16 16 15 15 15 15 15 14 15 14 14 15 17 17 17 17 15 15 15 13 14 17 17 17 18
25 24 23 23 22 21 21 20 19 19 19 19 20 20 20 20 20 19 19 18 18 17 17 17 17 17 17 16 17 19 19 18 18 18 17 16 15 17 18 18 18 20
27 26 26 25 24 23 23 22 22 22 21 22 22 22 22 22 22 22 22 21 21 20 20 20 20 20 20 20 20 20 20 20 20 20 19 17 17 20 21 20 20 22
29 28 27 26 26 25 26 26 26 25 25 24 24 24 24 24 24 24 24 24 23 23 24 23 23 23 23 23 23 23 22 22 22 22 21 20 20 21 21 20 21 23
30 30 30 29 28 28 29 29 29 28 28 27 26 26 26 25 26 26 26 26 25 26 26 26 26 26 26 25 25 25 24 23 24 24 23 23 22 21 21 21 23 24
31 31 32 31 31 31 31 31 31 30 29 29 28 28 27 26 27 27 27 27 27 27 27 27 27 28 28 28 27 26 26 25 25 25 25 24 23 22 22 24 25 25
31 31 32 32 33 33 32 32 31 30 29 29 29 29 28 28 28 28 29 29 29 29 29 29 30 30 30 29 28 28 28 27 27 26 26 26 25 24 24 26 27 27
33 33 33 33 33 34 32 30 30 30 29 29 29 29 30 30 30 30 30 30 31 31 31 31 32 32 32 31 31 30 30 29 28 28 27 26 26 26 25 26 26 28
35 34 35 35 34 34 33 31 30 30 30 30 30 30 32 33 33 32 32 32 32 32 33 33 34 34 33 33 33 32 32 31 29 28 28 28 28 28 27 27 28 29
38 37 38 38 38 37 35 34 34 33 33 33 32 32 33 34 34 34 34 34 34 34 34 34 35 35 35 35 35 34 33 32 31 31 31 31 31 31 30 30 31 32
41 41 41 41 41 40 38 36 36 37 37 36 35 35 37 37 36 36 36 36 36 35 34 34 34 34 35 36 36 35 35 34 33 33 33 33 34 34 33 32 32 33
42 43 43 42 42 42 41 40 40 40 40 39 38 38 39 40 39 38 39 39 38 37 36 35 34 33 33 34 35 36 36 36 35 34 34 34 34 35 34 34 34 35
45 46 45 44 44 43 42 42 43 43 41 40 40 40 40 41 39 38 39 39 37 37 36 35 34 33 32 33 33 34 35 35 34 33 33 34 36 36 36 35 35 36
47 50 49 46 44 43 42 43 45 45 43 41 41 42 44 42 38 36 37 37 36 35 35 34 34 34 33 32 32 32 33 33 33 33 34 35 37 37 37 37 37 39
41 48 50 47 44 43 42 43 44 43 42 41 40 39 38 36 33 33 35 37 36 36 33 32 32 33 34 33 31 31 32 32 34 35 37 37 37 37 38 39 39 40
33 39 44 43 41 40 39 40 41 40 38 38 36 35 34 33 31 31 32 32 32 32 30 29 29 31 33 33 32 32 33 34 36 37 38 38 37 37 36 36 35 34
Wind_Direction
200 199 199 199 199 196 193 190 187 186 184 185 187 189 190 189 189 189 189 185 182 183 184 185 187 189 195 200 201 203 206 209 213 211 212 213 213 213 212 213 212 210
201 199 197 197 197 195 192 189 186 184 182 184 184 184 185 186 187 188 186 187 187 188 192 195 199 199 199 203 205 205 205 209 214 216 218 221 222 223 223 221 218 217
200 200 198 197 196 194 193 192 191 189 187 186 184 182 184 186 187 186 187 193 196 197 202 205 209 209 208 210 211 211 212 214 218 221 224 228 231 233 235 233 229 228
201 201 199 199 198 196 196 195 195 196 193 191 189 188 188 188 188 188 190 201 209 212 214 215 216 215 215 219 221 221 222 222 223 224 225 227 231 235 239 241 243 247
204 203 201 200 201 201 201 201 199 200 200 198 198 198 197 195 195 195 197 204 214 219 221 223 226 225 225 226 228 231 232 230 229 227 225 226 230 235 243 260 275 273
207 206 205 203 203 204 205 205 205 206 207 205 203 204 206 207 208 209 210 212 218 223 225 227 230 232 234 234 234 237 239 238 239 238 235 233 237 246 265 283 276 265
212 210 209 207 208 210 209 209 210 212 213 213 213 212 214 218 222 225 226 225 227 231 232 232 234 236 239 240 239 240 242 242 243 243 242 243 246 252 262 265 256 250
217 216 214 213 212 213 214 215 215 216 218 221 226 229 230 232 233 236 240 242 242 241 239 237 237 239 244 248 247 244 246 248 249 253 256 258 254 246 247 254 256 256
222 222 221 221 220 219 219 218 219 220 222 226 233 239 243 244 244 243 244 246 248 247 245 241 238 237 242 250 254 252 251 253 257 262 263 261 260 261 263 265 263 263
226 225 224 224 224 225 224 222 222 223 225 230 236 241 245 249 250 251 250 249 248 247 248 247 246 244 241 245 252 255 253 252 254 256 255 255 257 264 271 273 270 269
229 229 228 227 226 227 228 227 228 229 230 233 238 242 246 249 251 253 254 254 252 251 251 252 254 254 251 249 252 254 253 252 252 253 254 255 253 255 264 270 268 268
232 233 233 232 231 231 233 234 235 236 238 239 241 243 246 249 251 253 254 256 256 256 255 255 256 257 257 257 256 258 258 257 257 256 255 254 255 259 262 263 262 264
233 233 234 235 235 236 238 239 240 241 242 244 246 247 248 250 252 254 254 256 257 257 256 256 256 256 258 258 258 260 261 262 263 263 260 259 260 263 262 260 262 264
237 236 237 238 239 241 243 244 244 244 245 245 246 248 249 251 253 254 254 255 255 255 255 254 255 255 257 258 258 260 262 264 266 266 265 264 263 264 264 263 263 262
239 239 240 240 241 242 244 246 247 247 247 247 246 246 247 249 251 252 252 252 253 254 254 254 255 256 257 258 259 262 264 266 267 268 268 267 265 265 265 264 263 263
238 239 239 239 240 241 242 244 245 247 248 250 249 248 246 246 248 249 250 251 252 253 254 255 256 257 257 259 260 263 265 266 267 269 269 269 268 266 265 265 265 267
238 240 242 241 241 241 242 243 246 247 249 251 252 252 250 248 247 247 248 250 251 252 254 255 256 257 257 258 260 262 264 265 266 266 267 267 267 265 265 268 270 272
240 242 245 245 244 244 244 247 250 251 252 253 253 254 253 251 249 249 249 250 251 251 252 254 256 258 259 259 260 261 262 263 263 264 264 265 266 267 267 270 273 276
240 241 244 246 246 245 245 246 250 252 253 253 253 253 254 254 253 252 251 251 252 253 254 255 255 257 259 260 261 261 261 261 262 263 265 266 268 269 270 272 275 278
240 240 242 244 246 246 244 244 247 249 250 251 252 253 254 254 254 255 254 254 255 256 258 259 258 257 257 258 260 261 261 260 261 263 265 268 270 270 271 274 277 278
241 242 242 243 245 246 245 245 247 250 252 252 254 255 254 254 255 256 257 257 258 259 259 260 260 259 257 257 258 259 260 260 260 262 265 268 269 270 272 275 276 277
240 243 244 245 246 247 247 247 249 251 253 254 256 258 257 257 259 261 261 260 260 259 259 259 260 260 259 258 258 258 258 259 260 262 265 268 270 271 272 273 274 276
240 241 243 243 245 247 248 248 250 253 254 255 257 257 256 257 258 258 259 260 260 258 258 258 259 258 258 259 259 258 258 259 260 262 265 269 271 271 271 272 274 277
242 241 242 244 245 247 248 249 251 254 255 255 256 257 255 254 250 247 250 255 258 258 259 259 257 256 256 257 258 260 260 259 261 263 265 267 268 269 271 273 276 278
244 240 241 245 249 251 250 250 251 253 254 254 255 253 250 244 240 242 250 255 256 257 259 260 258 255 254 255 257 260 260 260 260 263 265 268 270 272 275 278 280 280
245 241 241 245 249 249 247 245 246 247 249 251 249 245 243 242 242 248 252 253 254 256 259 262 260 255 254 255 256 258 259 260 261 263 267 271 273 275 277 279 280 280
Height
5912 5913 5914 5915 5915 5916 5917 5917 5918 5919 5919 5920 5921 5922 5922 5923 5924 5924 5925 5925 5926 5926 5927 5927 5928 5928 5929 5929 5930 5930 5931 5931 5931 5932 5932 5932 5932 5932 5932 5932 5932 5932
5912 5913 5913 5914 5915 5916 5916 5917 5917 5918 5919 5919 5920 5921 5922 5923 5924 5924 5925 5925 5926 5926 5927 5927 5928 5928 5929 5929 5929 5930 5930 5930 5931 5931 5932 5932 5932 5932 5932 5932 5932 5932
5911 5912 5913 5914 5914 5915 5916 5916 5917 5918 5918 5919 5920 5920 5921 5922 5923 5924 5925 5925 5926 5926 5927 5927 5928 5928 5928 5929 5929 5930 5930 5930 5930 5931 5931 5931 5932 5932 5932 5932 5932 5932
5911 5912 5913 5913 5914 5914 5915 5915 5916 5917 5918 5919 5919 5920 5921 5921 5922 5923 5924 5925 5925 5926 5927 5927 5928 5928 5928 5928 5929 5929 5929 5929 5930 5930 5930 5930 5931 5931 5931 5932 5933 5934
5911 5911 5912 5912 5913 5913 5914 5915 5915 5916 5917 5918 5919 5919 5920 5920 5921 5922 5923 5924 5924 5925 5926 5926 5927 5927 5927 5928 5928 5928 5928 5928 5929 5929 5929 5929 5930 5931 5932 5934 5935 5934
5910 5910 5911 5911 5912 5912 5913 5914 5915 5916 5917 5917 5918 5919 5919 5920 5920 5921 5922 5922 5923 5924 5925 5925 5926 5926 5927 5927 5927 5927 5927 5927 5928 5928 5928 5929 5930 5931 5933 5933 5932 5931
5908 5909 5909 5910 5910 5911 5912 5913 5914 5916 5917 5917 5918 5918 5919 5919 5920 5921 5921 5922 5923 5923 5924 5925 5925 5926 5926 5926 5926 5926 5926 5926 5927 5927 5928 5929 5929 5930 5930 5929 5929 5929
5907 5908 5908 5909 5910 5911 5912 5913 5914 5916 5916 5917 5917 5918 5918 5919 5919 5920 5920 5921 5922 5923 5924 5924 5924 5925 5925 5926 5926 5926 5926 5925 5926 5926 5927 5927 5927 5926 5926 5927 5927 5927
5905 5906 5907 5908 5909 5910 5911 5912 5913 5914 5915 5916 5916 5917 5917 5918 5919 5919 5920 5920 5921 5922 5922 5923 5923 5923 5923 5924 5925 5925 5925 5925 5924 5925 5925 5925 5925 5924 5924 5925 5925 5924
5904 5904 5905 5907 5908 5909 5910 5910 5911 5912 5913 5914 5915 5915 5916 5917 5918 5918 5919 5920 5920 5921 5921 5922 5922 5922 5922 5922 5923 5924 5923 5923 5922 5923 5923 5923 5924 5924 5923 5923 5923 5922
5902 5902 5903 5905 5906 5907 5908 5909 5909 5910 5911 5912 5913 5913 5914 5915 5916 5917 5918 5919 5919 5920 5920 5920 5921 5921 5921 5921 5922 5922 5921 5920 5920 5921 5921 5921 5922 5921 5920 5920 5920 5920
5899 5900 5902 5903 5904 5905 5906 5907 5908 5908 5909 5910 5910 5911 5912 5913 5914 5915 5916 5917 5918 5918 5919 5919 5919 5919 5919 5919 5919 5919 5919 5919 5918 5919 5919 5920 5921 5919 5917 5917 5918 5918
5896 5898 5899 5901 5902 5904 5904 5905 5905 5906 5907 5908 5908 5909 5910 5911 5911 5912 5913 5914 5915 5916 5916 5916 5916 5916 5916 5916 5916 5917 5917 5917 5917 5917 5918 5919 5919 5917 5916 5916 5916 5916
5894 5896 5897 5899 5900 5901 5902 5902 5903 5903 5904 5905 5905 5906 5907 5908 5908 5909 5910 5911 5912 5913 5913 5913 5913 5913 5913 5914 5914 5914 5914 5914 5915 5914 5915 5915 5916 5915 5914 5915 5914 5913
5891 5893 5894 5895 5896 5897 5898 5899 5900 5901 5901 5902 5902 5903 5904 5905 5905 5906 5907 5907 5908 5909 5910 5911 5911 5911 5911 5911 5911 5911 5911 5912 5911 5911 5911 5912 5913 5913 5913 5912 5911 5909
5888 5889 5890 5891 5892 5893 5893 5894 5896 5897 5898 5899 5900 5900 5901 5901 5902 5902 5903 5904 5905 5906 5906 5907 5908 5908 5908 5908 5908 5909 5909 5908 5908 5908 5908 5909 5910 5911 5910 5909 5908 5907
5885 5886 5887 5889 5889 5890 5891 5892 5893 5895 5896 5897 5898 5898 5899 5898 5898 5899 5900 5901 5902 5902 5903 5904 5904 5904 5905 5905 5905 5905 5905 5905 5905 5905 5905 5905 5906 5907 5906 5905 5904 5904
5882 5883 5884 5886 5887 5888 5889 5890 5891 5893 5894 5894 5895 5896 5896 5895 5895 5896 5896 5897 5898 5899 5899 5900 5901 5901 5902 5902 5902 5902 5901 5901 5901 5902 5902 5902 5902 5902 5903 5903 5902 5901
5878 5880 5881 5882 5883 5885 5886 5888 5888 5889 5890 5890 5891 5892 5892 5892 5893 5893 5893 5893 5894 5894 5895 5896 5897 5898 5899 5899 5899 5898 5898 5897 5898 5899 5899 5899 5899 5898 5899 5900 5899 5898
5874 5876 5877 5878 5879 5881 5883 5883 5884 5884 5885 5885 5886 5888 5888 5889 5889 5889 5889 5889 5890 5890 5891 5892 5893 5894 5895 5895 5895 5895 5894 5894 5895 5895 5895 5895 5895 5895 5895 5896 5895 5893
5869 5870 5872 5873 5875 5877 5878 5880 5880 5880 5880 5881 5882 5883 5884 5884 5885 5885 5886 5886 5886 5887 5887 5888 5889 5889 5890 5891 5891 5891 5891 5891 5891 5891 5892 5892 5891 5891 5892 5892 5891 5889
5864 5865 5867 5869 5871 5872 5874 5875 5875 5874 5875 5877 5878 5879 5879 5879 5880 5881 5881 5881 5882 5883 5883 5884 5884 5885 5886 5887 5887 5887 5887 5887 5887 5888 5888 5888 5887 5887 5888 5889 5888 5886
5860 5860 5862 5865 5866 5867 5869 5869 5869 5869 5871 5873 5874 5874 5874 5875 5876 5877 5876 5876 5877 5878 5879 5880 5881 5881 5882 5883 5883 5883 5883 5883 5884 5884 5884 5884 5883 5883 5884 5884 5883 5882
5854 5856 5858 5859 5861 5863 5864 5864 5864 5864 5866 5868 5868 5869 5869 5869 5871 5872 5872 5872 5873 5874 5875 5876 5877 5877 5878 5879 5879 5879 5879 5880 5880 5880 5880 5880 5879 5879 5879 5879 5879 5878
5849 5850 5853 5855 5857 5859 5860 5860 5859 5859 5860 5862 5863 5864 5864 5864 5866 5866 5867 5868 5869 5870 5871 5872 5873 5873 5874 5875 5875 5875 5876 5876 5876 5876 5876 5876 5875 5875 5875 5874 5874 5874
5845 5846 5848 5851 5852 5853 5853 5853 5854 5855 5856 5857 5858 5859 5859 5860 5861 5862 5863 5865 5865 5866 5868 5869 5869 5869 5870 5870 5871 5872 5872 5872 5872 5872 5872 5872 5871 5871 5871 5870 5870 5870